contact:dominique.lefevre@mio.osupytheas.fr, maurice.libes@osupytheas.fr, didier.mallarino@osupytheas.fr
Project:EMSO http://www.emso-fr.org/EMSO-France
Depth: 2436.0 m
Title:EMSO Ligure Ouest : Data MII capteur CSTAR
DateTime,Latitude,Longitude,Instrument_Serial,Reference_Counts,Signal_Counts,Corrected_Signal_raw_counts,Calculated_Beam_c_inverse_meters,Internal_thermistor_counts
DateTime,Latitude,Longitude,Instrument_Serial,Reference_Counts,Signal_Counts,Corrected_Signal_raw_counts,Calculated_Beam_c_inverse_meters,Internal_thermistor_counts
2022-12-27T00:02:41,42.805,6.029,CST-1368DR,4432,4938,11843,01.106,551
2022-12-27T00:05:43,42.805,6.029,CST-1368DR,4432,4939,11846,01.105,551
2022-12-27T00:08:44,42.805,6.029,CST-1368DR,4432,4938,11844,01.106,551
2022-12-27T00:11:46,42.805,6.029,CST-1368DR,4432,4940,11848,01.105,551
2022-12-27T00:14:47,42.805,6.029,CST-1368DR,4432,4942,11854,01.103,551
2022-12-27T00:17:49,42.805,6.029,CST-1368DR,4432,4933,11832,01.110,551
2022-12-27T00:20:51,42.805,6.029,CST-1368DR,4432,4932,11830,01.111,551
2022-12-27T00:23:52,42.805,6.029,CST-1368DR,4432,4931,11826,01.112,551
2022-12-27T00:26:54,42.805,6.029,CST-1368DR,4432,4931,11828,01.111,551
2022-12-27T00:29:55,42.805,6.029,CST-1368DR,4432,4933,11831,01.110,551
2022-12-27T00:32:57,42.805,6.029,CST-1368DR,4432,4935,11837,01.108,551
2022-12-27T00:35:59,42.805,6.029,CST-1368DR,4432,4931,11828,01.111,551
2022-12-27T00:39:00,42.805,6.029,CST-1368DR,4432,4932,11830,01.111,551
2022-12-27T00:42:02,42.805,6.029,CST-1368DR,4432,4936,11838,01.108,551
2022-12-27T00:45:03,42.805,6.029,CST-1368DR,4432,4936,11838,01.108,551
2022-12-27T00:48:05,42.805,6.029,CST-1368DR,4432,4933,11831,01.110,551
2022-12-27T00:51:07,42.805,6.029,CST-1368DR,4432,4932,11829,01.111,551
2022-12-27T00:54:08,42.805,6.029,CST-1368DR,4432,4935,11837,01.108,551
2022-12-27T00:57:10,42.805,6.029,CST-1368DR,4432,4938,11843,01.106,551
2022-12-27T01:00:11,42.805,6.029,CST-1368DR,4432,4930,11824,01.113,551
2022-12-27T01:03:13,42.805,6.029,CST-1368DR,4432,4934,11834,01.109,551
2022-12-27T01:06:14,42.805,6.029,CST-1368DR,4432,4938,11844,01.106,551
2022-12-27T01:09:16,42.805,6.029,CST-1368DR,4432,4936,11838,01.108,551
2022-12-27T01:12:18,42.805,6.029,CST-1368DR,4432,4935,11837,01.108,551
2022-12-27T01:15:19,42.805,6.029,CST-1368DR,4432,4933,11832,01.110,551
2022-12-27T01:18:21,42.805,6.029,CST-1368DR,4432,4933,11831,01.110,551
2022-12-27T01:21:22,42.805,6.029,CST-1368DR,4432,4932,11829,01.111,551
2022-12-27T01:24:24,42.805,6.029,CST-1368DR,4432,4932,11830,01.111,551
2022-12-27T01:27:26,42.805,6.029,CST-1368DR,4432,4933,11832,01.110,551
2022-12-27T01:30:27,42.805,6.029,CST-1368DR,4432,4938,11843,01.106,551
2022-12-27T01:33:29,42.805,6.029,CST-1368DR,4432,4938,11844,01.106,551
2022-12-27T01:36:30,42.805,6.029,CST-1368DR,4432,4936,11838,01.108,551
2022-12-27T01:39:32,42.805,6.029,CST-1368DR,4432,4937,11841,01.107,551
2022-12-27T01:42:33,42.805,6.029,CST-1368DR,4432,4937,11840,01.107,551
2022-12-27T01:45:35,42.805,6.029,CST-1368DR,4432,4936,11840,01.107,551
2022-12-27T01:48:37,42.805,6.029,CST-1368DR,4432,4936,11840,01.107,551
2022-12-27T01:51:38,42.805,6.029,CST-1368DR,4432,4939,11846,01.105,551
2022-12-27T01:54:40,42.805,6.029,CST-1368DR,4432,4939,11845,01.106,551
2022-12-27T01:57:41,42.805,6.029,CST-1368DR,4432,4936,11840,01.107,551
2022-12-27T02:00:43,42.805,6.029,CST-1368DR,4432,4938,11843,01.106,551
2022-12-27T02:03:45,42.805,6.029,CST-1368DR,4432,4936,11840,01.107,551
2022-12-27T02:06:46,42.805,6.029,CST-1368DR,4432,4940,11849,01.104,551
2022-12-27T02:09:48,42.805,6.029,CST-1368DR,4432,4940,11847,01.105,551
2022-12-27T02:12:49,42.805,6.029,CST-1368DR,4432,4939,11846,01.105,551
2022-12-27T02:15:51,42.805,6.029,CST-1368DR,4432,4940,11847,01.105,551
2022-12-27T02:18:52,42.805,6.029,CST-1368DR,4432,4943,11855,01.102,551
2022-12-27T02:21:54,42.805,6.029,CST-1368DR,4432,4943,11855,01.102,551
2022-12-27T02:24:56,42.805,6.029,CST-1368DR,4432,4941,11850,01.104,551
2022-12-27T02:27:57,42.805,6.029,CST-1368DR,4432,4949,11871,01.097,551
2022-12-27T02:30:59,42.805,6.029,CST-1368DR,4431,4944,11860,01.100,551
2022-12-27T02:34:00,42.805,6.029,CST-1368DR,4431,4946,11864,01.099,551
2022-12-27T02:37:02,42.805,6.029,CST-1368DR,4431,4944,11860,01.100,551
2022-12-27T02:40:03,42.805,6.029,CST-1368DR,4431,4947,11867,01.098,551
2022-12-27T02:43:05,42.805,6.029,CST-1368DR,4431,4947,11867,01.098,551
2022-12-27T02:46:07,42.805,6.029,CST-1368DR,4431,4947,11869,01.097,551
2022-12-27T02:49:08,42.805,6.029,CST-1368DR,4431,4947,11869,01.097,551
2022-12-27T02:52:10,42.805,6.029,CST-1368DR,4431,4945,11863,01.099,551
2022-12-27T02:55:11,42.805,6.029,CST-1368DR,4431,4944,11861,01.100,551
2022-12-27T02:58:13,42.805,6.029,CST-1368DR,4431,4945,11863,01.099,551
2022-12-27T03:01:15,42.805,6.029,CST-1368DR,4431,4935,11839,01.108,551
2022-12-27T03:04:16,42.805,6.029,CST-1368DR,4431,4946,11864,01.099,551
2022-12-27T03:07:18,42.805,6.029,CST-1368DR,4431,4947,11867,01.098,551
2022-12-27T03:10:19,42.805,6.029,CST-1368DR,4432,4947,11864,01.099,551
2022-12-27T03:13:21,42.805,6.029,CST-1368DR,4432,4948,11867,01.098,551
2022-12-27T03:16:22,42.805,6.029,CST-1368DR,4432,4950,11873,01.096,551
2022-12-27T03:19:24,42.805,6.029,CST-1368DR,4432,4949,11870,01.097,551
2022-12-27T03:22:26,42.805,6.029,CST-1368DR,4432,4949,11869,01.097,551
2022-12-27T03:25:27,42.805,6.029,CST-1368DR,4432,4948,11867,01.098,551
2022-12-27T03:28:29,42.805,6.029,CST-1368DR,4432,4948,11867,01.098,551
2022-12-27T03:31:30,42.805,6.029,CST-1368DR,4432,4948,11868,01.098,551
2022-12-27T03:34:32,42.805,6.029,CST-1368DR,4432,4948,11868,01.098,551
2022-12-27T03:37:34,42.805,6.029,CST-1368DR,4432,4947,11866,01.098,551
2022-12-27T03:40:35,42.805,6.029,CST-1368DR,4432,4948,11868,01.098,551
2022-12-27T03:43:37,42.805,6.029,CST-1368DR,4432,4950,11873,01.096,551
2022-12-27T03:46:38,42.805,6.029,CST-1368DR,4432,4947,11864,01.099,551
2022-12-27T03:49:40,42.805,6.029,CST-1368DR,4431,4944,11860,01.100,551
2022-12-27T03:52:41,42.805,6.029,CST-1368DR,4432,4948,11867,01.098,551
2022-12-27T03:55:43,42.805,6.029,CST-1368DR,4431,4948,11869,01.097,551
2022-12-27T03:58:45,42.805,6.029,CST-1368DR,4431,4947,11867,01.098,551
2022-12-27T04:01:46,42.805,6.029,CST-1368DR,4431,4947,11869,01.097,551
2022-12-27T04:04:48,42.805,6.029,CST-1368DR,4431,4952,11879,01.094,551
2022-12-27T04:07:49,42.805,6.029,CST-1368DR,4431,4944,11861,01.100,551
2022-12-27T04:10:51,42.805,6.029,CST-1368DR,4431,4946,11865,01.099,551
2022-12-27T04:13:53,42.805,6.029,CST-1368DR,4431,4945,11863,01.099,551
2022-12-27T04:16:54,42.805,6.029,CST-1368DR,4431,4947,11867,01.098,551
2022-12-27T04:19:56,42.805,6.029,CST-1368DR,4431,4945,11863,01.099,551
2022-12-27T04:22:57,42.805,6.029,CST-1368DR,4431,4946,11865,01.099,551
2022-12-27T04:25:59,42.805,6.029,CST-1368DR,4431,4946,11865,01.099,551
2022-12-27T04:29:00,42.805,6.029,CST-1368DR,4431,4953,11882,01.093,551
2022-12-27T04:32:02,42.805,6.029,CST-1368DR,4431,4945,11863,01.099,551
2022-12-27T04:35:04,42.805,6.029,CST-1368DR,4431,4945,11863,01.099,551
2022-12-27T04:38:05,42.805,6.029,CST-1368DR,4431,4946,11864,01.099,551
2022-12-27T04:41:07,42.805,6.029,CST-1368DR,4431,4944,11860,01.100,551
2022-12-27T04:44:08,42.805,6.029,CST-1368DR,4431,4944,11860,01.100,551
2022-12-27T04:47:10,42.805,6.029,CST-1368DR,4431,4942,11855,01.102,551
2022-12-27T04:50:12,42.805,6.029,CST-1368DR,4431,4946,11866,01.098,551
2022-12-27T04:53:13,42.805,6.029,CST-1368DR,4431,4943,11859,01.101,551
2022-12-27T04:56:15,42.805,6.029,CST-1368DR,4431,4943,11859,01.101,551
2022-12-27T04:59:16,42.805,6.029,CST-1368DR,4431,4945,11862,01.100,551
2022-12-27T05:02:18,42.805,6.029,CST-1368DR,4431,4944,11861,01.100,551
2022-12-27T05:05:20,42.805,6.029,CST-1368DR,4431,4946,11864,01.099,551
2022-12-27T05:08:21,42.805,6.029,CST-1368DR,4431,4947,11867,01.098,551
2022-12-27T05:11:23,42.805,6.029,CST-1368DR,4431,4945,11864,01.099,551
2022-12-27T05:14:24,42.805,6.029,CST-1368DR,4431,4945,11863,01.099,551
2022-12-27T05:17:26,42.805,6.029,CST-1368DR,4431,4951,11878,01.094,551
2022-12-27T05:20:27,42.805,6.029,CST-1368DR,4431,4945,11864,01.099,551
2022-12-27T05:23:29,42.805,6.029,CST-1368DR,4431,4945,11863,01.099,551
2022-12-27T05:26:31,42.805,6.029,CST-1368DR,4431,4945,11864,01.099,551
2022-12-27T05:29:32,42.805,6.029,CST-1368DR,4431,4945,11864,01.099,551
2022-12-27T05:32:34,42.805,6.029,CST-1368DR,4431,4943,11859,01.101,551
2022-12-27T05:35:35,42.805,6.029,CST-1368DR,4431,4943,11859,01.101,551
2022-12-27T05:38:37,42.805,6.029,CST-1368DR,4431,4945,11862,01.100,551
2022-12-27T05:41:39,42.805,6.029,CST-1368DR,4431,4942,11855,01.102,551
2022-12-27T05:44:40,42.805,6.029,CST-1368DR,4431,4945,11862,01.100,551
2022-12-27T05:47:42,42.805,6.029,CST-1368DR,4431,4944,11861,01.100,551
2022-12-27T05:50:43,42.805,6.029,CST-1368DR,4431,4937,11843,01.106,551
2022-12-27T05:53:45,42.805,6.029,CST-1368DR,4431,4943,11857,01.102,551
2022-12-27T05:56:46,42.805,6.029,CST-1368DR,4431,4944,11861,01.100,551
2022-12-27T05:59:48,42.805,6.029,CST-1368DR,4431,4941,11852,01.103,551
2022-12-27T06:02:50,42.805,6.029,CST-1368DR,4431,4937,11845,01.106,551
2022-12-27T06:05:51,42.805,6.029,CST-1368DR,4431,4939,11848,01.105,551
2022-12-27T06:08:53,42.805,6.029,CST-1368DR,4431,4938,11846,01.105,551
2022-12-27T06:11:54,42.805,6.029,CST-1368DR,4431,4939,11848,01.105,551
2022-12-27T06:14:56,42.805,6.029,CST-1368DR,4431,4934,11837,01.108,551
2022-12-27T06:17:58,42.805,6.029,CST-1368DR,4431,4934,11837,01.108,551
2022-12-27T06:20:59,42.805,6.029,CST-1368DR,4431,4930,11826,01.112,551
2022-12-27T06:24:01,42.805,6.029,CST-1368DR,4431,4933,11834,01.109,551
2022-12-27T06:27:02,42.805,6.029,CST-1368DR,4431,4935,11840,01.107,551
2022-12-27T06:30:04,42.805,6.029,CST-1368DR,4431,4935,11839,01.108,551
2022-12-27T06:33:05,42.805,6.029,CST-1368DR,4431,4935,11839,01.108,551
2022-12-27T06:36:07,42.805,6.029,CST-1368DR,4431,4932,11833,01.110,551
2022-12-27T06:39:09,42.805,6.029,CST-1368DR,4431,4931,11830,01.111,551
2022-12-27T06:42:10,42.805,6.029,CST-1368DR,4431,4930,11827,01.112,551
2022-12-27T06:45:12,42.805,6.029,CST-1368DR,4431,4935,11839,01.108,551
2022-12-27T06:48:13,42.805,6.029,CST-1368DR,4431,4925,11815,01.116,551
2022-12-27T06:51:15,42.805,6.029,CST-1368DR,4431,4927,11820,01.114,551
2022-12-27T06:54:17,42.805,6.029,CST-1368DR,4431,4929,11824,01.113,551
2022-12-27T06:57:18,42.805,6.029,CST-1368DR,4431,4921,11806,01.119,551
2022-12-27T07:00:20,42.805,6.029,CST-1368DR,4431,4918,11799,01.121,551
2022-12-27T07:03:21,42.805,6.029,CST-1368DR,4431,4932,11833,01.110,551
2022-12-27T07:06:23,42.805,6.029,CST-1368DR,4431,4924,11812,01.117,551
2022-12-27T07:09:24,42.805,6.029,CST-1368DR,4431,4942,11855,01.102,551
2022-12-27T07:12:26,42.805,6.029,CST-1368DR,4432,4945,11861,01.100,551
2022-12-27T07:15:28,42.805,6.029,CST-1368DR,4432,4946,11862,01.100,551
2022-12-27T07:18:29,42.805,6.029,CST-1368DR,4432,4948,11867,01.098,551
2022-12-27T07:21:31,42.805,6.029,CST-1368DR,4431,4948,11870,01.097,551
2022-12-27T07:24:32,42.805,6.029,CST-1368DR,4431,4938,11846,01.105,551
2022-12-27T07:27:34,42.805,6.029,CST-1368DR,4431,4939,11849,01.104,551
2022-12-27T07:30:36,42.805,6.029,CST-1368DR,4432,4940,11849,01.104,551
2022-12-27T07:33:37,42.805,6.029,CST-1368DR,4431,4940,11850,01.104,551
2022-12-27T07:36:39,42.805,6.029,CST-1368DR,4432,4939,11847,01.105,551
2022-12-27T07:39:40,42.805,6.029,CST-1368DR,4431,4940,11850,01.104,551
2022-12-27T07:42:42,42.805,6.029,CST-1368DR,4431,4941,11852,01.103,551
2022-12-27T07:45:43,42.805,6.029,CST-1368DR,4432,4941,11852,01.103,551
2022-12-27T07:48:45,42.805,6.029,CST-1368DR,4431,4942,11857,01.102,551
2022-12-27T07:51:47,42.805,6.029,CST-1368DR,4432,4944,11857,01.102,551
2022-12-27T07:54:48,42.805,6.029,CST-1368DR,4432,4941,11851,01.104,551
2022-12-27T07:57:50,42.805,6.029,CST-1368DR,4432,4942,11853,01.103,551
2022-12-27T08:00:51,42.805,6.029,CST-1368DR,4432,4941,11852,01.103,551
2022-12-27T08:03:53,42.805,6.029,CST-1368DR,4432,4943,11855,01.102,551
2022-12-27T08:06:54,42.805,6.029,CST-1368DR,4432,4943,11856,01.102,551
2022-12-27T08:09:56,42.805,6.029,CST-1368DR,4432,4943,11856,01.102,551
2022-12-27T08:12:58,42.805,6.029,CST-1368DR,4432,4938,11843,01.106,551
2022-12-27T08:15:59,42.805,6.029,CST-1368DR,4431,4940,11850,01.104,551
2022-12-27T08:19:01,42.805,6.029,CST-1368DR,4431,4942,11856,01.102,551
2022-12-27T08:22:02,42.805,6.029,CST-1368DR,4431,4941,11854,01.103,551
2022-12-27T08:25:04,42.805,6.029,CST-1368DR,4431,4941,11854,01.103,551
2022-12-27T08:28:06,42.805,6.029,CST-1368DR,4432,4941,11852,01.103,551
2022-12-27T08:31:07,42.805,6.029,CST-1368DR,4432,4940,11848,01.105,551
2022-12-27T08:34:09,42.805,6.029,CST-1368DR,4432,4940,11848,01.105,551
2022-12-27T08:37:10,42.805,6.029,CST-1368DR,4432,4941,11851,01.104,551
2022-12-27T08:40:12,42.805,6.029,CST-1368DR,4432,4941,11850,01.104,551
2022-12-27T08:43:13,42.805,6.029,CST-1368DR,4432,4941,11851,01.104,551
2022-12-27T08:46:15,42.805,6.029,CST-1368DR,4432,4940,11847,01.105,551
2022-12-27T08:49:17,42.805,6.029,CST-1368DR,4432,4936,11840,01.107,551
2022-12-27T08:52:18,42.805,6.029,CST-1368DR,4432,4938,11843,01.106,551
2022-12-27T08:55:20,42.805,6.029,CST-1368DR,4432,4937,11840,01.107,551
2022-12-27T08:58:21,42.805,6.029,CST-1368DR,4431,4941,11853,01.103,551
2022-12-27T09:01:23,42.805,6.029,CST-1368DR,4432,4939,11846,01.105,551
2022-12-27T09:04:25,42.805,6.029,CST-1368DR,4432,4940,11847,01.105,551
2022-12-27T09:07:26,42.805,6.029,CST-1368DR,4432,4941,11851,01.104,551
2022-12-27T09:10:28,42.805,6.029,CST-1368DR,4431,4938,11847,01.105,551
2022-12-27T09:13:29,42.805,6.029,CST-1368DR,4432,4940,11847,01.105,551
2022-12-27T09:16:31,42.805,6.029,CST-1368DR,4432,4942,11852,01.103,551
2022-12-27T09:19:33,42.805,6.029,CST-1368DR,4431,4940,11851,01.104,551
2022-12-27T09:22:34,42.805,6.029,CST-1368DR,4431,4939,11848,01.105,551
2022-12-27T09:25:36,42.805,6.029,CST-1368DR,4431,4941,11854,01.103,551
2022-12-27T09:28:37,42.805,6.029,CST-1368DR,4431,4940,11851,01.104,551
2022-12-27T09:31:39,42.805,6.029,CST-1368DR,4431,4940,11850,01.104,551
2022-12-27T09:34:40,42.805,6.029,CST-1368DR,4431,4943,11858,01.101,551
2022-12-27T09:37:42,42.805,6.029,CST-1368DR,4431,4941,11853,01.103,551
2022-12-27T09:40:44,42.805,6.029,CST-1368DR,4431,4942,11855,01.102,551
2022-12-27T09:43:45,42.805,6.029,CST-1368DR,4431,4942,11856,01.102,551
2022-12-27T09:46:47,42.805,6.029,CST-1368DR,4431,4941,11854,01.103,551
2022-12-27T09:49:48,42.805,6.029,CST-1368DR,4431,4943,11858,01.101,551
2022-12-27T09:52:50,42.805,6.029,CST-1368DR,4431,4943,11858,01.101,551
2022-12-27T09:55:52,42.805,6.029,CST-1368DR,4431,4943,11859,01.101,551
2022-12-27T09:58:53,42.805,6.029,CST-1368DR,4431,4945,11864,01.099,551
2022-12-27T10:01:55,42.805,6.029,CST-1368DR,4431,4944,11860,01.100,551
2022-12-27T10:04:56,42.805,6.029,CST-1368DR,4431,4943,11857,01.102,551
2022-12-27T10:07:58,42.805,6.029,CST-1368DR,4431,4943,11857,01.102,551
2022-12-27T10:10:59,42.805,6.029,CST-1368DR,4431,4942,11856,01.102,551
2022-12-27T10:14:01,42.805,6.029,CST-1368DR,4431,4941,11852,01.103,551
2022-12-27T10:17:03,42.805,6.029,CST-1368DR,4431,4942,11857,01.102,551
2022-12-27T10:20:04,42.805,6.029,CST-1368DR,4431,4943,11858,01.101,551
2022-12-27T10:23:06,42.805,6.029,CST-1368DR,4431,4942,11855,01.102,551
2022-12-27T10:26:07,42.805,6.029,CST-1368DR,4432,4945,11860,01.100,551
2022-12-27T10:29:09,42.805,6.029,CST-1368DR,4431,4942,11855,01.102,551
2022-12-27T10:32:11,42.805,6.029,CST-1368DR,4431,4938,11847,01.105,551
2022-12-27T10:35:12,42.805,6.029,CST-1368DR,4431,4941,11853,01.103,551
2022-12-27T10:38:14,42.805,6.029,CST-1368DR,4431,4943,11857,01.102,551
2022-12-27T10:41:15,42.805,6.029,CST-1368DR,4431,4940,11851,01.104,551
2022-12-27T10:44:17,42.805,6.029,CST-1368DR,4431,4942,11855,01.102,551
2022-12-27T10:47:18,42.805,6.029,CST-1368DR,4431,4941,11852,01.103,551
2022-12-27T10:50:20,42.805,6.029,CST-1368DR,4431,4940,11851,01.104,551
2022-12-27T10:53:22,42.805,6.029,CST-1368DR,4431,4942,11855,01.102,551
2022-12-27T10:56:23,42.805,6.029,CST-1368DR,4431,4942,11855,01.102,551
2022-12-27T10:59:25,42.805,6.029,CST-1368DR,4431,4947,11869,01.097,551
2022-12-27T11:02:26,42.805,6.029,CST-1368DR,4431,4945,11863,01.099,551
2022-12-27T11:05:28,42.805,6.029,CST-1368DR,4431,4942,11857,01.102,551
2022-12-27T11:08:30,42.805,6.029,CST-1368DR,4431,4939,11849,01.104,551
2022-12-27T11:11:31,42.805,6.029,CST-1368DR,4431,4943,11857,01.102,551
2022-12-27T11:14:33,42.805,6.029,CST-1368DR,4431,4955,11887,01.091,551
2022-12-27T11:17:34,42.805,6.029,CST-1368DR,4431,4943,11859,01.101,551
2022-12-27T11:20:36,42.805,6.029,CST-1368DR,4431,4945,11863,01.099,551
2022-12-27T11:23:37,42.805,6.029,CST-1368DR,4431,4945,11863,01.099,551
2022-12-27T11:26:39,42.805,6.029,CST-1368DR,4431,4945,11862,01.100,551
2022-12-27T11:29:41,42.805,6.029,CST-1368DR,4431,4945,11863,01.099,551
2022-12-27T11:32:42,42.805,6.029,CST-1368DR,4431,4945,11863,01.099,551
2022-12-27T11:35:44,42.805,6.029,CST-1368DR,4431,4944,11861,01.100,551
2022-12-27T11:38:45,42.805,6.029,CST-1368DR,4431,4944,11861,01.100,551
2022-12-27T11:41:47,42.805,6.029,CST-1368DR,4431,4944,11861,01.100,551
2022-12-27T11:44:49,42.805,6.029,CST-1368DR,4431,4946,11864,01.099,551
2022-12-27T11:47:50,42.805,6.029,CST-1368DR,4431,4945,11863,01.099,551
2022-12-27T11:50:52,42.805,6.029,CST-1368DR,4431,4944,11860,01.100,551
2022-12-27T11:53:53,42.805,6.029,CST-1368DR,4431,4945,11863,01.099,551
2022-12-27T11:56:55,42.805,6.029,CST-1368DR,4431,4943,11859,01.101,551
2022-12-27T11:59:56,42.805,6.029,CST-1368DR,4431,4945,11862,01.100,551
2022-12-27T12:02:58,42.805,6.029,CST-1368DR,4431,4944,11861,01.100,551
2022-12-27T12:06:00,42.805,6.029,CST-1368DR,4431,4947,11867,01.098,551
2022-12-27T12:09:01,42.805,6.029,CST-1368DR,4431,4944,11861,01.100,551
2022-12-27T12:12:03,42.805,6.029,CST-1368DR,4431,4944,11861,01.100,551
2022-12-27T12:15:04,42.805,6.029,CST-1368DR,4431,4946,11864,01.099,551
2022-12-27T12:18:06,42.805,6.029,CST-1368DR,4431,4945,11862,01.100,551
2022-12-27T12:21:08,42.805,6.029,CST-1368DR,4431,4944,11861,01.100,551
2022-12-27T12:24:09,42.805,6.029,CST-1368DR,4431,4944,11861,01.100,551
2022-12-27T12:27:11,42.805,6.029,CST-1368DR,4431,4944,11860,01.100,551
2022-12-27T12:30:12,42.805,6.029,CST-1368DR,4431,4945,11864,01.099,551
2022-12-27T12:33:14,42.805,6.029,CST-1368DR,4431,4943,11859,01.101,551
2022-12-27T12:36:16,42.805,6.029,CST-1368DR,4431,4944,11861,01.100,551
2022-12-27T12:39:17,42.805,6.029,CST-1368DR,4431,4943,11858,01.101,551
2022-12-27T12:42:19,42.805,6.029,CST-1368DR,4431,4944,11860,01.100,551
2022-12-27T12:45:20,42.805,6.029,CST-1368DR,4431,4944,11860,01.100,551
2022-12-27T12:48:22,42.805,6.029,CST-1368DR,4431,4945,11863,01.099,551
2022-12-27T12:51:23,42.805,6.029,CST-1368DR,4431,4944,11860,01.100,551
2022-12-27T12:54:25,42.805,6.029,CST-1368DR,4431,4942,11855,01.102,551
2022-12-27T12:57:27,42.805,6.029,CST-1368DR,4431,4942,11856,01.102,551
2022-12-27T13:00:28,42.805,6.029,CST-1368DR,4431,4943,11857,01.102,551
2022-12-27T13:03:30,42.805,6.029,CST-1368DR,4431,4944,11861,01.100,551
2022-12-27T13:06:31,42.805,6.029,CST-1368DR,4431,4943,11858,01.101,551
2022-12-27T13:09:33,42.805,6.029,CST-1368DR,4431,4944,11861,01.100,551
2022-12-27T13:12:35,42.805,6.029,CST-1368DR,4431,4942,11857,01.102,551
2022-12-27T13:15:36,42.805,6.029,CST-1368DR,4431,4945,11863,01.099,551
2022-12-27T13:18:38,42.805,6.029,CST-1368DR,4431,4946,11865,01.099,551
2022-12-27T13:21:39,42.805,6.029,CST-1368DR,4431,4945,11862,01.100,551
2022-12-27T13:24:41,42.805,6.029,CST-1368DR,4430,4943,11860,01.100,551
2022-12-27T13:27:42,42.805,6.029,CST-1368DR,4431,4944,11861,01.100,551
2022-12-27T13:30:44,42.805,6.029,CST-1368DR,4430,4944,11862,01.100,551
2022-12-27T13:33:46,42.805,6.029,CST-1368DR,4430,4945,11865,01.099,551
2022-12-27T13:36:47,42.805,6.029,CST-1368DR,4430,4944,11862,01.100,551
2022-12-27T13:39:49,42.805,6.029,CST-1368DR,4430,4943,11860,01.100,551
2022-12-27T13:42:50,42.805,6.029,CST-1368DR,4430,4944,11862,01.100,551
2022-12-27T13:45:52,42.805,6.029,CST-1368DR,4430,4945,11865,01.099,551
2022-12-27T13:48:54,42.805,6.029,CST-1368DR,4430,4945,11866,01.098,551
2022-12-27T13:51:55,42.805,6.029,CST-1368DR,4430,4943,11860,01.100,551
2022-12-27T13:54:57,42.805,6.029,CST-1368DR,4430,4945,11865,01.099,551
2022-12-27T13:57:58,42.805,6.029,CST-1368DR,4430,4943,11861,01.100,551
2022-12-27T14:01:00,42.805,6.029,CST-1368DR,4430,4943,11860,01.100,551
2022-12-27T14:04:01,42.805,6.029,CST-1368DR,4430,4943,11860,01.100,551
2022-12-27T14:07:03,42.805,6.029,CST-1368DR,4430,4948,11872,01.096,551
2022-12-27T14:10:05,42.805,6.029,CST-1368DR,4430,4946,11867,01.098,551
2022-12-27T14:13:06,42.805,6.029,CST-1368DR,4430,4945,11865,01.099,551
2022-12-27T14:16:08,42.805,6.029,CST-1368DR,4430,4945,11866,01.098,551
2022-12-27T14:19:09,42.805,6.029,CST-1368DR,4430,4943,11862,01.100,551
2022-12-27T14:22:11,42.805,6.029,CST-1368DR,4431,4942,11857,01.102,551
2022-12-27T14:25:13,42.805,6.029,CST-1368DR,4431,4942,11855,01.102,551
2022-12-27T14:28:14,42.805,6.029,CST-1368DR,4431,4941,11854,01.103,551
2022-12-27T14:31:16,42.805,6.029,CST-1368DR,4431,4936,11842,01.107,551
2022-12-27T14:34:17,42.805,6.029,CST-1368DR,4431,4941,11853,01.103,551
2022-12-27T14:37:19,42.805,6.029,CST-1368DR,4431,4940,11851,01.104,551
2022-12-27T14:40:21,42.805,6.029,CST-1368DR,4431,4939,11849,01.104,551
2022-12-27T14:43:22,42.805,6.029,CST-1368DR,4431,4939,11849,01.104,551
2022-12-27T14:46:24,42.805,6.029,CST-1368DR,4431,4938,11846,01.105,551
2022-12-27T14:49:25,42.805,6.029,CST-1368DR,4431,4939,11848,01.105,551
2022-12-27T14:52:27,42.805,6.029,CST-1368DR,4431,4939,11848,01.105,551
2022-12-27T14:55:28,42.805,6.029,CST-1368DR,4431,4938,11847,01.105,551
2022-12-27T14:58:30,42.805,6.029,CST-1368DR,4431,4933,11833,01.110,551
2022-12-27T15:01:32,42.805,6.029,CST-1368DR,4431,4937,11845,01.106,551
2022-12-27T15:04:33,42.805,6.029,CST-1368DR,4431,4933,11834,01.109,551
2022-12-27T15:07:35,42.805,6.029,CST-1368DR,4431,4937,11843,01.106,551
2022-12-27T15:10:36,42.805,6.029,CST-1368DR,4431,4937,11845,01.106,551
2022-12-27T15:13:38,42.805,6.029,CST-1368DR,4431,4936,11842,01.107,551
2022-12-27T15:16:40,42.805,6.029,CST-1368DR,4431,4937,11845,01.106,551
2022-12-27T15:19:41,42.805,6.029,CST-1368DR,4431,4938,11846,01.105,551
2022-12-27T15:22:43,42.805,6.029,CST-1368DR,4431,4940,11851,01.104,551
2022-12-27T15:25:44,42.805,6.029,CST-1368DR,4431,4937,11845,01.106,551
2022-12-27T15:28:46,42.805,6.029,CST-1368DR,4431,4939,11849,01.104,551
2022-12-27T15:31:47,42.805,6.029,CST-1368DR,4431,4939,11849,01.104,551
2022-12-27T15:34:49,42.805,6.029,CST-1368DR,4431,4940,11851,01.104,551
2022-12-27T15:37:51,42.805,6.029,CST-1368DR,4431,4937,11843,01.106,551
2022-12-27T15:40:52,42.805,6.029,CST-1368DR,4431,4934,11837,01.108,551
2022-12-27T15:43:54,42.805,6.029,CST-1368DR,4431,4934,11836,01.109,551
2022-12-27T15:46:55,42.805,6.029,CST-1368DR,4431,4934,11837,01.108,551
2022-12-27T15:49:57,42.805,6.029,CST-1368DR,4431,4934,11836,01.109,551
2022-12-27T15:52:59,42.805,6.029,CST-1368DR,4431,4933,11834,01.109,551
2022-12-27T15:56:00,42.805,6.029,CST-1368DR,4431,4932,11832,01.110,551
2022-12-27T15:59:02,42.805,6.029,CST-1368DR,4431,4932,11832,01.110,551
2022-12-27T16:02:03,42.805,6.029,CST-1368DR,4431,4933,11834,01.109,551
2022-12-27T16:05:05,42.805,6.029,CST-1368DR,4431,4931,11830,01.111,551
2022-12-27T16:08:06,42.805,6.029,CST-1368DR,4431,4932,11831,01.110,551
2022-12-27T16:11:08,42.805,6.029,CST-1368DR,4431,4933,11835,01.109,551
2022-12-27T16:14:10,42.805,6.029,CST-1368DR,4431,4931,11829,01.111,551
2022-12-27T16:17:11,42.805,6.029,CST-1368DR,4431,4935,11839,01.108,550
2022-12-27T16:20:13,42.805,6.029,CST-1368DR,4431,4935,11838,01.108,550
2022-12-27T16:23:14,42.805,6.029,CST-1368DR,4430,4940,11854,01.103,551
2022-12-27T16:26:16,42.805,6.029,CST-1368DR,4430,4934,11839,01.108,551
2022-12-27T16:29:18,42.805,6.029,CST-1368DR,4430,4935,11841,01.107,551
2022-12-27T16:32:19,42.805,6.029,CST-1368DR,4430,4934,11840,01.107,551
2022-12-27T16:35:21,42.805,6.029,CST-1368DR,4430,4935,11841,01.107,551
2022-12-27T16:38:22,42.805,6.029,CST-1368DR,4430,4932,11835,01.109,551